Regional Weather Roundup
Issued by NWS

Home | Current Version | Previous Version | Graphics & Text | Print | Product List | Glossary Off
Versions: 1 2 3 4 5 6 7 8 9 10 11 12 13 14 15 16 17 18 19 20 21 22 23 24 25 26 27 28 29 30 31 32 33 34 35 36 37 38 39 40 41 42 43 44 45 46 47 48 49 50

000
ASUS43 KMKX 240620
RWRWI

WISCONSIN REGIONAL WEATHER ROUNDUP
NATIONAL WEATHER SERVICE MILWAUKEE/SULLIVAN WI
100 AM CDT SUN MAY 24 2015

NOTE: "FAIR" INDICATES FEW OR NO CLOUDS BELOW 12,000 FEET WITH NO
SIGNIFICANT WEATHER AND/OR OBSTRUCTIONS TO VISIBILITY.

WIZ001-002-006>008-014>016-023>028-240700-
NORTHWEST WISCONSIN

CITY           SKY/WX    TMP DP  RH WIND       PRES   REMARKS
SUPERIOR ARPT  FAIR      53  45  74 SW6       30.15S
ASHLAND        PTCLDY    47  43  86 S3        30.16S
6HR MIN TEMP:  46; 6HR MAX TEMP:  73;

HAYWARD        CLOUDY    52  46  80 N5        30.17F
6HR MIN TEMP:  51; 6HR MAX TEMP:  69;

SIREN          CLOUDY    59  51  75 CALM      30.15F
CUMBERLAND     CLOUDY    57  48  72 CALM      30.17S
RICE LAKE      CLOUDY    58  53  82 CALM      30.18S
CHETEK         CLOUDY    60  51  71 CALM      30.17S
LADYSMITH      CLOUDY    57  51  81 NE3       30.19F
EAU CLAIRE     CLOUDY    58  46  64 NE5       30.14F
6HR MIN TEMP:  57; 6HR MAX TEMP:  73;

MENOMONIE      CLOUDY    60  47  64 CALM      30.15F
NEW RICHMOND   CLOUDY    59  48  67 NE3       30.15F
OSCEOLA        CLOUDY    61  49  65 E3        30.17F
$$

WIZ003>005-009-010-017-018-240700-
NORTH CENTRAL WISCONSIN

CITY           SKY/WX    TMP DP  RH WIND       PRES   REMARKS
MANITOWISH WTR PTCLDY    50  48  91 CALM      30.19S
ARBOR VITAE    CLOUDY    58  47  66 CALM      30.19S
WOODRUFF       CLOUDY    58  47  66 CALM      30.19S
RHINELANDER    CLOUDY    57  46  66 CALM      30.20S
6HR MIN TEMP:  56; 6HR MAX TEMP:  71;

EAGLE RIVER    CLOUDY    57  40  53 CALM      30.19S
LAND O LAKES   CLOUDY    55  42  63 CALM      30.20S
PHILLIPS       CLOUDY    56  49  78 CALM      30.19R
TOMAHAWK       CLOUDY    53  46  78 CALM      30.20R
MEDFORD        CLOUDY    55  52  89 E5        30.18S
MERRILL        CLOUDY    56  51  82 CALM      30.20R
$$

WIZ029-030-035-036-043>047-240700-
CENTRAL WISCONSIN

CITY           SKY/WX    TMP DP  RH WIND       PRES   REMARKS
WAUSAU         LGT RAIN  60  49  66 N3        30.17S
6HR MIN TEMP:  59; 6HR MAX TEMP:  72; 6HR PCP: TRACE;

MOSINEE        CLOUDY    61  45  55 NE3       30.19S
MARSHFIELD     CLOUDY    62  45  53 E3        30.17F
6HR MIN TEMP:  62; 6HR MAX TEMP:  72;

STEVENS POINT  CLOUDY    56  49  77 CALM      30.18S
WAUPACA        MOCLDY    60  48  66 CALM      30.18S
WAUTOMA        NOT AVBL
WISC RAPIDS    CLOUDY    60  45  57 CALM      30.17F
6HR MIN TEMP:  58; 6HR MAX TEMP:  75; 6HR PCP: TRACE;

CAMP DOUGLAS   NOT AVBL
$$

WIZ011>013-019>022-031-037>040-048>050-240700-
NORTHEAST WISCONSIN

CITY           SKY/WX    TMP DP  RH WIND       PRES   REMARKS
ANTIGO         MOCLDY    58  51  77 CALM      30.20S
SHAWANO        MOCLDY    60  45  57 CALM      30.18S
OCONTO         MOCLDY    56  47  74 CALM      30.17S
STURGEON BAY   CLOUDY    61  39  44 S6        30.20S
6HR MIN TEMP:  59; 6HR MAX TEMP:  68;

GREEN BAY      PTCLDY    62  43  49 S6        30.18S
6HR MIN TEMP:  62; 6HR MAX TEMP:  77;

MANITOWOC      NOT AVBL
APPLETON       PTCLDY    61  45  55 SE5       30.18S
CLINTONVILLE   PTCLDY    54  46  76 CALM      30.18S
OSHKOSH        PTCLDY    57  44  62 S7        30.17F
6HR MIN TEMP:  55; 6HR MAX TEMP:  76;

$$

WIZ032>034-041-042-053>061-240700-
SOUTHWEST WISCONSIN

CITY           SKY/WX    TMP DP  RH WIND       PRES   REMARKS
LA CROSSE      MOCLDY    61  50  67 CALM      30.12F
6HR MIN TEMP:  60; 6HR MAX TEMP:  77;

SPARTA         MOCLDY    52  49  89 CALM      30.16F
VIROQUA        MOCLDY    63  44  49 SE7       30.15F
BOSCOBEL       PTCLDY    52  49  89 CALM      30.15F
6HR MIN TEMP:  52; 6HR MAX TEMP:  78;

PRAIRIE DU CHI MOCLDY    57  49  75 CALM      30.14S
PLATTEVILLE    CLOUDY    64  49  58 SE6       30.15F
$$

WIZ056-057-062-063-064-067-068-240700-
SOUTH CENTRAL WISCONSIN

CITY           SKY/WX    TMP DP  RH WIND       PRES   REMARKS
REEDSBURG      CLEAR     54  48  81 CALM      30.16F
BARABOO/DELLS  CLEAR     55  44  66 CALM      30.16F
LONE ROCK      NOT AVBL
MINERAL POINT  PTCLDY    63  43  48 SE3       30.16F
MADISON        CLEAR     55  47  74 CALM      30.16F
6HR MIN TEMP:  54; 6HR MAX TEMP:  75;

MIDDLETON      CLEAR     55  45  70 CALM      30.17F
WATERTOWN      CLEAR     57  46  66 CALM      30.17F
MONROE         PTCLDY    64  45  48 S6        30.17S
JANESVILLE     CLEAR     59  45  58 E5        30.17S
$$

WIZ051-052-058>065-066-070>072-240700-
SOUTHEAST WISCONSIN

CITY           SKY/WX    TMP DP  RH WIND       PRES   REMARKS
MILWAUKEE      PTCLDY    56  39  53 CALM      30.19F
6HR MIN TEMP:  56; 6HR MAX TEMP:  66;

WAUKESHA       CLEAR     57  39  51 S3        30.20S
MILWAUKEE/TIMM CLEAR     55  41  58 CALM      30.20F
RACINE         CLEAR     57  38  48 S5        30.20F
6HR MIN TEMP:  56; 6HR MAX TEMP:  64;

BURLINGTON     CLEAR     51  45  79 CALM      30.19S
KENOSHA        CLEAR     54  41  61 CALM      30.19F
6HR MIN TEMP:  53; 6HR MAX TEMP:  69;

FOND DU LAC    CLEAR     59  42  53 S5        30.18F
6HR MIN TEMP:  57; 6HR MAX TEMP:  77;

SHEBOYGAN      CLEAR     51  40  65 CALM      30.19F
6HR MIN TEMP:  50; 6HR MAX TEMP:  67;

WEST BEND      CLEAR     50  43  76 CALM      30.20S
JUNEAU         CLEAR     58  44  60 CALM      30.19F
$$

LSZ147-162-240700-
LAKE SUPERIOR

STATION/POSITION TIME  TEMP    WIND        PRES    WAVE
                       AIR SEA DIR/SP/G            HT/PER
                 (UTC) (F)     (DEG/KT/KT) (MB)    (FT/S)
W MID LAKE BUOY  0450   45 36  220/ 12/ 14   N/A     1
DEVILS ISLAND    0500   59     230/ 16/ 18   N/A
PORT WING        0540   56     150/  2/  5   N/A
$$

LMZ867-665-643>646-240700-
LAKE MICHIGAN

STATION/POSITION TIME  TEMP    WIND        PRES    WAVE
                       AIR SEA DIR/SP/G            HT/PER
                 (UTC) (F)     (DEG/KT/KT) (MB)    (FT/S)
CHAMBERS ISLAND  0400   63     170/  6/ 11   N/A
N MID LAKE BUOY  0450   44 36  210/ 12/ 14   N/A     2/ 4
NORTHPORT PIER   0500   65     200/  5/ 11   N/A
SISTER BAY       0517   63     210/  7/  9   N/A
KEWAUNEE LAKESHO 0500   59     190/  7/  9   N/A
SHEBOYGAN LAKESH 0500   58     210/  6/  6   N/A
PORT WASHINGTON  0540   53        CALM       N/A
ATWATER BUOY     0500   48 45   CALM  /  2   N/A
MILWAUKEE LAKESH 0500   52      40/  4/  5   N/A
S MID LAKE BUOY  0450   48 38  140/  8/ 10   N/A     0
KENOSHA   LAKESH 0400   56     180/ 11/ 12   N/A
$$

TC  - TEMPERATURE IN CELSIUS
VSB - VISIBILITY IN STATUTE MILES
WCI - WIND CHILL INDEX
HX  - HEAT INDEX



USA.gov is the U.S. government's official web portal to all federal, state and local government web resources and services.